KY0TEQ-13 Weather Reports


time (UTC)temp
F
wind
direction
speed
knots
gust
knots
rain 1hr
in
rain 24hr
in
rain mn
in
humidity
%
barometer
mb
20260906232344 83 273 1.7 6.1 0.00 0.00 0.00 21 1305.7
20260906231844 84 197 3.5 7.0 0.00 0.00 0.00 21 1306.0
20260906231339 83 199 7.8 9.6 0.00 0.00 0.00 22 1306.0
20260906230838 83 229 6.1 8.7 0.00 0.00 0.00 21 1306.1
20260906230334 83 214 7.8 12.2 0.00 0.00 0.00 21 1306.0
20260906225832 83 220 7.8 8.7 0.00 0.00 0.00 22 1306.1
20260906225328 84 193 7.0 8.7 0.00 0.00 0.00 21 1305.8
20260906224823 83 180 3.5 7.8 0.00 0.00 0.00 22 1305.8
20260906224320 83 228 5.2 7.8 0.00 0.00 0.00 22 1306.1
20260906223816 84 194 4.3 5.2 0.00 0.00 0.00 21 1306.1
20260906223312 83 211 2.6 8.7 0.00 0.00 0.00 21 1306.2
20260906222809 84 223 1.7 6.1 0.00 0.00 0.00 21 1306.1
20260906222309 83 199 7.0 8.7 0.00 0.00 0.00 22 1306.2
20260906221807 83 228 9.6 12.2 0.00 0.00 0.00 22 1306.5
20260906221301 84 170 6.1 9.6 0.00 0.00 0.00 21 1306.2
20260906220757 83 198 6.1 7.0 0.00 0.00 0.00 22 1306.3
20260906220251 82 210 8.7 11.3 0.00 0.00 0.00 22 1306.6
20260906215751 82 194 7.8 8.7 0.00 0.00 0.00 22 1306.6
20260906215251 82 189 5.2 6.1 0.00 0.00 0.00 23 1306.6
20260906214749 81 214 7.0 7.8 0.00 0.00 0.00 23 1306.8
20260906214244 81 205 3.5 7.8 0.00 0.00 0.00 23 1306.8
20260906213743 81 180 6.1 9.6 0.00 0.00 0.00 22 1306.9
20260906213243 81 206 7.8 8.7 0.00 0.00 0.00 23 1306.7
20260906212740 81 159 6.1 11.3 0.00 0.00 0.00 22 1306.9
20260906212236 81 204 7.0 8.7 0.00 0.00 0.00 23 1306.9
20260906211736 82 203 8.7 12.2 0.00 0.00 0.00 21 1307.1
20260906211231 82 156 2.6 6.1 0.00 0.00 0.00 21 1307.1
20260906210726 82 154 2.6 7.0 0.00 0.00 0.00 21 1307.1
20260906210221 82 230 5.2 7.0 0.00 0.00 0.00 21 1307.2
20260906205716 82 195 4.3 9.6 0.00 0.00 0.00 22 1307.2
20260906205213 82 170 3.5 7.8 0.00 0.00 0.00 22 1307.3
20260906204713 82 271 3.5 7.0 0.00 0.00 0.00 21 1307.3
20260906204206 81 168 4.3 8.7 0.00 0.00 0.00 22 1307.4
20260906203706 82 169 6.1 7.8 0.00 0.00 0.00 22 1307.4
20260906203201 83 175 4.3 7.8 0.00 0.00 0.00 21 1307.6
20260906202658 81 199 7.8 12.2 0.00 0.00 0.00 22 1307.6
20260906202157 81 196 5.2 7.8 0.00 0.00 0.00 22 1307.6
20260906201652 81 212 6.1 8.7 0.00 0.00 0.00 23 1307.7
20260906201151 80 218 7.0 7.8 0.00 0.00 0.00 23 1307.7
20260906200648 80 174 7.8 11.3 0.00 0.00 0.00 24 1307.8
20260906200143 80 158 7.0 8.7 0.00 0.00 0.00 23 1308.0
20260906195638 81 212 11.3 13.9 0.00 0.00 0.00 23 1307.7
20260906195135 82 200 6.1 12.2 0.00 0.00 0.00 21 1307.8
20260906194631 82 198 7.0 9.6 0.00 0.00 0.00 22 1307.9
20260906194126 82 180 9.6 13.0 0.00 0.00 0.00 22 1308.0
20260906193621 81 193 7.8 12.2 0.00 0.00 0.00 22 1307.9
20260906193116 81 179 4.3 8.7 0.00 0.00 0.00 22 1307.8
20260906192612 80 210 7.0 8.7 0.00 0.00 0.00 22 1308.0
20260906192110 80 183 8.7 13.0 0.00 0.00 0.00 22 1307.9
20260906191606 80 228 6.1 8.7 0.00 0.00 0.00 22 1308.0
20260906191105 80 212 12.2 13.9 0.00 0.00 0.00 22 1308.3
20260906190604 80 171 5.2 8.7 0.00 0.00 0.00 22 1308.3
20260906190059 80 185 4.3 6.1 0.00 0.00 0.00 21 1308.3
20260906185558 80 179 5.2 7.8 0.00 0.00 0.00 21 1308.4
20260906185057 81 187 7.8 8.7 0.00 0.00 0.00 21 1308.5
20260906184552 81 206 2.6 7.0 0.00 0.00 0.00 20 1308.4
20260906184048 80 207 6.1 7.0 0.00 0.00 0.00 20 1308.6
20260906183544 80 201 8.7 11.3 0.00 0.00 0.00 22 1308.6
20260906183039 80 205 3.5 6.1 0.00 0.00 0.00 21 1308.6
20260906182534 80 198 7.0 11.3 0.00 0.00 0.00 21 1308.8
20260906182030 81 176 0.9 2.6 0.00 0.00 0.00 20 1308.8
20260906181526 81 191 1.7 5.2 0.00 0.00 0.00 20 1308.9
20260906181021 80 226 4.3 8.7 0.00 0.00 0.00 20 1309.0
20260906180516 80 160 2.6 7.8 0.00 0.00 0.00 21 1309.1
20260906180015 80 184 3.5 5.2 0.00 0.00 0.00 20 1309.1
20260906175509 81 162 3.5 6.1 0.00 0.00 0.00 21 1309.4
20260906175009 82 196 3.5 6.1 0.00 0.00 0.00 21 1309.4
20260906174507 80 159 0.9 5.2 0.00 0.00 0.00 21 1309.5
20260906174002 80 174 4.3 7.0 0.00 0.00 0.00 21 1309.5
20260906173457 81 111 5.2 7.8 0.00 0.00 0.00 22 1309.7
20260906172957 79 162 2.6 6.1 0.00 0.00 0.00 22 1309.7
20260906172447 78 174 0.0 3.5 0.00 0.00 0.00 23 1309.7
20260906171942 80 92 5.2 6.1 0.00 0.00 0.00 21 1310.1
20260906171436 78 145 2.6 5.2 0.00 0.00 0.00 23 1310.0
20260906170932 77 132 5.2 6.1 0.00 0.00 0.00 24 1310.2
20260906170428 77 109 1.7 7.0 0.00 0.00 0.00 24 1310.1
20260906165926 77 171 0.0 6.1 0.00 0.00 0.00 24 1310.2
20260906165424 77 150 5.2 7.0 0.00 0.00 0.00 24 1310.1
20260906164920 76 199 2.6 7.0 0.00 0.00 0.00 25 1309.9
20260906164418 75 187 5.2 7.8 0.00 0.00 0.00 26 1310.5
20260906163915 76 115 3.5 6.1 0.00 0.00 0.00 25 1310.1
20260906163410 75 130 5.2 6.1 0.00 0.00 0.00 26 1310.4
20260906162909 74 157 4.3 7.0 0.00 0.00 0.00 26 1310.2
20260906162407 75 210 2.6 6.1 0.00 0.00 0.00 26 1310.2
20260906161902 73 128 3.5 6.1 0.00 0.00 0.00 26 1310.0
20260906161401 73 185 4.3 6.1 0.00 0.00 0.00 26 1310.2
20260906160901 74 177 2.6 6.1 0.00 0.00 0.00 27 1310.1
20260906160354 74 144 2.6 5.2 0.00 0.00 0.00 28 1310.2
20260906155853 73 155 0.9 5.2 0.00 0.00 0.00 27 1310.4
20260906155346 72 150 2.6 3.5 0.00 0.00 0.00 27 1310.2
20260906154843 72 174 3.5 6.1 0.00 0.00 0.00 27 1310.2
20260906154338 72 180 2.6 5.2 0.00 0.00 0.00 29 1310.5
20260906153836 73 158 1.7 5.2 0.00 0.00 0.00 28 1310.4
20260906153336 72 189 0.9 3.5 0.00 0.00 0.00 26 1310.2
20260906152831 73 176 1.7 2.6 0.00 0.00 0.00 25 1310.2
20260906152326 73 184 0.9 1.7 0.00 0.00 0.00 25 1310.4
20260906151825 71 142 0.9 1.7 0.00 0.00 0.00 26 1310.4
20260906151321 71 359 2.6 3.5 0.00 0.00 0.00 26 1310.4
20260906150816 70 31 3.5 3.5 0.00 0.00 0.00 27 1310.4
20260906150312 70 23 2.6 3.5 0.00 0.00 0.00 28 1310.4
20260906145811 69 2 2.6 2.6 0.00 0.00 0.00 29 1310.4
20260906145309 69 22 3.5 3.5 0.00 0.00 0.00 28 1310.6
20260906144805 69 6 1.7 2.6 0.00 0.00 0.00 28 1310.5
20260906144300 68 229 1.7 5.2 0.00 0.00 0.00 30 1310.6
20260906143759 68 29 0.9 2.6 0.00 0.00 0.00 31 1310.5
20260906143256 67 20 2.6 2.6 0.00 0.00 0.00 31 1310.4
20260906142756 67 68 2.6 2.6 0.00 0.00 0.00 31 1310.6
20260906142251 66 44 2.6 2.6 0.00 0.00 0.00 32 1310.4
20260906141750 64 5 2.6 2.6 0.00 0.00 0.00 33 1310.5
20260906141245 64 265 1.7 2.6 0.00 0.00 0.00 35 1310.5
20260906140744 63 354 1.7 1.7 0.00 0.00 0.00 36 1310.7
20260906140239 62 127 0.9 1.7 0.00 0.00 0.00 37 1310.6
20260906135736 62 129 0.9 2.6 0.00 0.00 0.00 37 1310.6
20260906135232 60 32 1.7 5.2 0.00 0.00 0.00 38 1310.7
20260906134727 59 328 2.6 3.5 0.00 0.00 0.00 40 1310.5
20260906134223 60 183 0.9 0.9 0.00 0.00 0.00 41 1310.5
20260906133718 58 6 0.9 1.7 0.00 0.00 0.00 41 1310.6
20260906133214 58 312 1.7 1.7 0.00 0.00 0.00 43 1310.4
20260906132709 57 341 1.7 2.6 0.00 0.00 0.00 43 1310.1
20260906132204 57 111 1.7 2.6 0.00 0.00 0.00 43 1310.0
20260906131659 56 128 0.9 1.7 0.00 0.00 0.00 44 1310.0
20260906131155 55 13 1.7 3.5 0.00 0.00 0.00 45 1310.0
20260906130650 54 3 1.7 3.5 0.00 0.00 0.00 46 1309.9
20260906130145 55 290 1.7 2.6 0.00 0.00 0.00 47 1310.0
20260906125643 54 320 3.5 5.2 0.00 0.00 0.00 46 1309.6
20260906125141 55 326 1.7 2.6 0.00 0.00 0.00 46 1309.7
20260906124637 55 354 1.7 3.5 0.00 0.00 0.00 45 1309.5
20260906124132 55 359 1.7 2.6 0.00 0.00 0.00 46 1309.5
20260906123631 53 94 1.7 1.7 0.00 0.00 0.00 48 1309.4
20260906123127 53 250 0.9 1.7 0.00 0.00 0.00 49 1309.7
20260906122626 55 1 0.9 1.7 0.00 0.00 0.00 46 1309.6
20260906122121 55 23 1.7 2.6 0.00 0.00 0.00 46 1309.6
20260906121618 53 110 0.9 1.7 0.00 0.00 0.00 48 1309.6
20260906121114 53 8 1.7 2.6 0.00 0.00 0.00 48 1309.3
20260906120610 54 272 1.7 2.6 0.00 0.00 0.00 50 1309.5
20260906120107 53 332 2.6 2.6 0.00 0.00 0.00 48 1309.5
20260906115607 53 294 1.7 2.6 0.00 0.00 0.00 49 1309.6
20260906115102 52 308 3.5 3.5 0.00 0.00 0.00 51 1309.4
20260906114555 52 318 2.6 2.6 0.00 0.00 0.00 53 1309.4
20260906114051 54 324 2.6 2.6 0.00 0.00 0.00 50 1309.4
20260906113550 52 333 1.7 1.7 0.00 0.00 0.00 52 1309.3
20260906113045 53 274 0.9 1.7 0.00 0.00 0.00 50 1309.6
20260906112540 52 309 2.6 3.5 0.00 0.00 0.00 53 1309.3
20260906112037 51 322 1.7 2.6 0.00 0.00 0.00 55 1309.5
20260906111536 52 302 1.7 2.6 0.00 0.00 0.00 54 1309.4
20260906111032 52 322 1.7 2.6 0.00 0.00 0.00 52 1309.4
20260906110531 53 293 2.6 2.6 0.00 0.00 0.00 52 1309.3
20260906110031 52 312 3.5 3.5 0.00 0.00 0.00 53 1309.4
20260906105526 55 293 1.7 2.6 0.00 0.00 0.00 49 1309.3
20260906105022 55 303 1.7 2.6 0.00 0.00 0.00 48 1309.0
20260906104520 56 345 3.5 3.5 0.00 0.00 0.00 46 1309.3
20260906104015 56 10 1.7 1.7 0.00 0.00 0.00 47 1309.1
20260906103513 56 332 1.7 5.2 0.00 0.00 0.00 46 1308.9
20260906103008 56 10 1.7 5.2 0.00 0.00 0.00 47 1309.0
20260906102508 56 332 2.6 5.2 0.00 0.00 0.00 46 1308.9
20260906102009 56 11 3.5 3.5 0.00 0.00 0.00 47 1309.0
20260906101503 56 344 1.7 2.6 0.00 0.00 0.00 47 1308.9
20260906100959 56 10 1.7 3.5 0.00 0.00 0.00 46 1309.1
20260906100454 55 34 1.7 2.6 0.00 0.00 0.00 47 1309.0
20260906095954 55 131 0.9 0.9 0.00 0.00 0.00 50 1308.9
20260906095449 56 68 0.9 1.7 0.00 0.00 0.00 47 1308.8
20260906094944 56 58 1.7 2.6 0.00 0.00 0.00 46 1308.9
20260906094438 58 175 1.7 2.6 0.00 0.00 0.00 45 1308.8
20260906093934 58 352 2.6 3.5 0.00 0.00 0.00 45 1309.0
20260906093430 58 30 1.7 3.5 0.00 0.00 0.00 45 1308.9
20260906092930 57 284 0.9 1.7 0.00 0.00 0.00 46 1309.0
20260906092429 57 235 0.9 2.6 0.00 0.00 0.00 45 1308.9
20260906091925 57 326 1.7 1.7 0.00 0.00 0.00 46 1309.0
20260906091421 58 327 1.7 3.5 0.00 0.00 0.00 44 1309.0
20260906090917 58 353 3.5 5.2 0.00 0.00 0.00 44 1309.0
20260906090413 53 299 2.6 5.2 0.00 0.00 0.00 51 1308.9
20260906085907 54 290 2.6 2.6 0.00 0.00 0.00 51 1309.0
20260906085405 54 255 0.9 1.7 0.00 0.00 0.00 51 1308.9
20260906084859 56 320 2.6 2.6 0.00 0.00 0.00 46 1309.0
20260906084355 53 322 1.7 2.6 0.00 0.00 0.00 52 1308.9
20260906083849 55 245 0.9 1.7 0.00 0.00 0.00 49 1308.9
20260906083344 54 9 1.7 1.7 0.00 0.00 0.00 49 1309.0
20260906082844 53 310 2.6 2.6 0.00 0.00 0.00 53 1309.0
20260906082339 56 264 1.7 1.7 0.00 0.00 0.00 47 1309.1
20260906081835 55 341 1.7 2.6 0.00 0.00 0.00 51 1309.1
20260906081331 56 193 0.9 0.9 0.00 0.00 0.00 49 1309.0
20260906080826 56 160 0.9 1.7 0.00 0.00 0.00 47 1309.0
20260906080323 57 259 1.7 2.6 0.00 0.00 0.00 47 1309.3
20260906075821 55 351 1.7 2.6 0.00 0.00 0.00 49 1309.3
20260906075316 57 213 0.9 1.7 0.00 0.00 0.00 48 1309.3
20260906074812 56 347 2.6 2.6 0.00 0.00 0.00 47 1309.3
20260906074311 58 250 1.7 1.7 0.00 0.00 0.00 46 1309.4
20260906073810 59 208 0.9 0.9 0.00 0.00 0.00 44 1309.3
20260906073305 59 316 1.7 2.6 0.00 0.00 0.00 44 1309.3
20260906072802 58 350 0.9 2.6 0.00 0.00 0.00 45 1309.4
20260906072257 59 330 3.5 7.0 0.00 0.00 0.00 43 1309.3
20260906071753 58 51 3.5 5.2 0.00 0.00 0.00 45 1309.5
20260906071253 60 303 2.6 3.5 0.00 0.00 0.00 43 1309.4
20260906070749 60 335 3.5 3.5 0.00 0.00 0.00 42 1309.3
20260906070245 59 236 1.7 1.7 0.00 0.00 0.00 44 1309.4
20260906065744 59 333 0.9 1.7 0.00 0.00 0.00 45 1309.1
20260906065240 60 49 0.9 1.7 0.00 0.00 0.00 42 1309.3
20260906064736 58 321 1.7 2.6 0.00 0.00 0.00 46 1309.1
20260906064231 60 187 0.9 2.6 0.00 0.00 0.00 43 1309.5
20260906063726 58 56 0.9 1.7 0.00 0.00 0.00 45 1309.1
20260906063221 58 134 0.9 0.9 0.00 0.00 0.00 46 1309.1
20260906062717 59 184 0.0 0.9 0.00 0.00 0.00 45 1309.1
20260906062216 61 223 0.9 1.7 0.00 0.00 0.00 43 1309.3
20260906061712 61 357 2.6 3.5 0.00 0.00 0.00 41 1309.0
20260906061208 62 325 1.7 5.2 0.00 0.00 0.00 40 1309.0
20260906060703 61 329 1.7 2.6 0.00 0.00 0.00 41 1309.1
20260906060200 61 351 2.6 3.5 0.00 0.00 0.00 41 1308.9
20260906055655 59 0 1.7 2.6 0.00 0.00 0.00 43 1309.1
20260906055150 59 133 0.9 0.9 0.00 0.00 0.00 44 1309.0
20260906054646 61 342 1.7 1.7 0.00 0.00 0.00 42 1309.0
20260906054141 62 167 0.9 1.7 0.00 0.00 0.00 41 1309.3
20260906053637 62 7 3.5 3.5 0.00 0.00 0.00 41 1309.1
20260906053132 62 7 1.7 3.5 0.00 0.00 0.00 41 1309.0
20260906052627 62 39 1.7 1.7 0.00 0.00 0.00 41 1309.0
20260906052124 63 155 0.9 1.7 0.00 0.00 0.00 40 1308.9
20260906051620 63 8 1.7 2.6 0.00 0.00 0.00 39 1308.9
20260906051114 64 21 1.7 2.6 0.00 0.00 0.00 38 1309.1
20260906050610 65 286 1.7 2.6 0.00 0.00 0.00 36 1309.0
20260906050105 63 329 1.7 2.6 0.00 0.00 0.00 38 1308.9
20260906045603 61 1 1.7 2.6 0.00 0.00 0.00 41 1308.9
20260906045059 62 253 1.7 2.6 0.00 0.00 0.00 39 1309.0
20260906044554 61 0 2.6 2.6 0.00 0.00 0.00 40 1309.0
20260906044049 63 254 0.9 1.7 0.00 0.00 0.00 37 1309.1
20260906043545 64 340 2.6 3.5 0.00 0.00 0.00 37 1309.0
20260906043041 62 200 0.9 0.9 0.00 0.00 0.00 39 1309.1
20260906042540 61 192 0.0 0.9 0.00 0.00 0.00 40 1308.8
20260906042035 61 205 0.9 0.9 0.00 0.00 0.00 40 1309.0
20260906041531 62 185 0.0 0.9 0.00 0.00 0.00 38 1308.6
20260906041031 64 345 3.5 3.5 0.00 0.00 0.00 35 1308.9
20260906040521 65 14 2.6 3.5 0.00 0.00 0.00 35 1308.6
20260906040016 66 27 1.7 2.6 0.00 0.00 0.00 33 1308.8
20260906035510 67 230 0.9 2.6 0.00 0.00 0.00 31 1308.8
20260906035001 69 259 0.9 0.9 0.00 0.00 0.00 30 1308.6
20260906034501 69 231 0.9 2.6 0.00 0.00 0.00 29 1308.8
20260906033956 69 272 3.5 6.1 0.00 0.00 0.00 29 1308.6
20260906033450 69 293 2.6 6.1 0.00 0.00 0.00 30 1308.5
20260906032946 68 222 0.9 1.7 0.00 0.00 0.00 32 1308.6
20260906032443 69 210 0.9 2.6 0.00 0.00 0.00 31 1308.4
20260906031937 69 191 0.9 2.6 0.00 0.00 0.00 31 1308.4
20260906031432 70 254 0.9 1.7 0.00 0.00 0.00 29 1308.5
20260906030927 71 188 0.9 2.6 0.00 0.00 0.00 29 1308.3
20260906030422 70 270 2.6 5.2 0.00 0.00 0.00 29 1308.4
20260906025916 70 229 1.7 5.2 0.00 0.00 0.00 29 1308.3
20260906025411 70 264 3.5 3.5 0.00 0.00 0.00 29 1308.2
20260906024910 70 187 0.9 2.6 0.00 0.00 0.00 29 1308.0
20260906024409 70 207 0.9 2.6 0.00 0.00 0.00 28 1308.0
20260906023904 70 192 0.9 2.6 0.00 0.00 0.00 28 1308.0
20260906023400 70 204 1.7 2.6 0.00 0.00 0.00 27 1307.8
20260906022855 70 199 1.7 1.7 0.00 0.00 0.00 27 1307.7
20260906022350 70 223 3.5 3.5 0.00 0.00 0.00 26 1307.6
20260906021846 70 225 3.5 5.2 0.00 0.00 0.00 27 1307.6
20260906021345 70 219 2.6 3.5 0.00 0.00 0.00 26 1307.8
20260906020840 70 206 1.7 1.7 0.00 0.00 0.00 26 1307.7
20260906020339 71 176 0.9 2.6 0.00 0.00 0.00 26 1307.7
20260906015834 71 233 1.7 2.6 0.00 0.00 0.00 25 1307.6
20260906015333 72 234 1.7 1.7 0.00 0.00 0.00 24 1307.3
20260906014833 72 210 1.7 2.6 0.00 0.00 0.00 24 1307.3
20260906014328 73 189 1.7 2.6 0.00 0.00 0.00 24 1307.3
20260906013824 73 226 2.6 3.5 0.00 0.00 0.00 24 1307.6
20260906013320 73 215 1.7 3.5 0.00 0.00 0.00 24 1307.4
20260906012815 74 204 1.7 3.5 0.00 0.00 0.00 24 1307.4
20260906012314 74 229 3.5 3.5 0.00 0.00 0.00 24 1307.3
20260906011809 75 226 5.2 7.0 0.00 0.00 0.00 25 1307.4
20260906011304 75 214 3.5 5.2 0.00 0.00 0.00 26 1307.2
20260906010800 75 208 3.5 6.1 0.00 0.00 0.00 27 1307.2
20260906010256 75 226 3.5 5.2 0.00 0.00 0.00 26 1307.4
20260906005751 75 209 5.2 7.0 0.00 0.00 0.00 26 1307.4
20260906005250 76 212 4.3 6.1 0.00 0.00 0.00 25 1307.4
20260906004749 75 198 4.3 6.1 0.00 0.00 0.00 26 1307.6
20260906004244 76 204 7.8 7.8 0.00 0.00 0.00 26 1307.4
20260906003739 76 208 6.1 7.8 0.00 0.00 0.00 27 1307.4
20260906003235 77 196 7.8 9.6 0.00 0.00 0.00 26 1307.6
20260906002734 77 219 7.8 8.7 0.00 0.00 0.00 27 1307.6
20260906002229 77 213 6.1 8.7 0.00 0.00 0.00 26 1307.6
20260906001725 78 210 7.8 8.7 0.00 0.00 0.00 26 1307.3
20260906001220 79 228 7.0 9.6 0.00 0.00 0.00 24 1307.3
20260906000715 80 203 7.8 9.6 0.00 0.00 0.00 24 1307.1
20260906000212 80 216 9.6 12.2 0.00 0.00 0.00 24 1307.3
20260905235709 79 201 7.8 9.6 0.00 0.00 0.00 25 1307.3
20260905235204 79 194 9.6 13.0 0.00 0.00 0.00 24 1307.2
20260905234659 81 171 6.1 7.8 0.00 0.00 0.00 23 1307.3
20260905234155 80 178 7.8 8.7 0.00 0.00 0.00 23 1307.2
20260905233650 80 179 4.3 8.7 0.00 0.00 0.00 23 1307.1
20260905233149 82 201 11.3 12.2 0.00 0.00 0.00 22 1307.4
20260905232644 80 237 5.2 7.0 0.00 0.00 0.00 23 1307.4